This is the latest recevied weather packets stored in our database for station/object W0VI. If no packets are shown the sender has not sent any weather packets the latest 10 day(s).
| Time | Temp. | Humidity | Pressure | Rain* | Wind** | Luminosity | Snow |
|---|---|---|---|---|---|---|---|
| 1778191660 | 15° C | 27% | 1009.9 hPa | 0 mm | - | 400 W/m² | - |
| 1778191359 | 13.89° C | 28% | 1009.8 hPa | 0 mm | - | 393 W/m² | - |
| 1778191054 | 13.89° C | 30% | 1010 hPa | 0 mm | - | 236 W/m² | - |
| 1778190752 | 14.44° C | 27% | 1009.9 hPa | 0 mm | - | 405 W/m² | - |
| 1778190449 | 14.44° C | 29% | 1009.9 hPa | 0 mm | - | 418 W/m² | - |
| 1778190146 | 14.44° C | 27% | 1010 hPa | 0 mm | - | 442 W/m² | - |
| 1778189842 | 13.89° C | 27% | 1010.2 hPa | 0 mm | - | 241 W/m² | - |
| 1778189539 | 14.44° C | 27% | 1010 hPa | 0 mm | - | 402 W/m² | - |
| 1778189235 | 13.89° C | 27% | 1009.9 hPa | 0 mm | - | 435 W/m² | - |
| 1778188932 | 13.89° C | 27% | 1009.9 hPa | 0 mm | - | 431 W/m² | - |
| 1778188629 | 13.89° C | 30% | 1010 hPa | 0 mm | - | 422 W/m² | - |
| 1778188324 | 13.33° C | 28% | 1010.1 hPa | 0 mm | - | 469 W/m² | - |
| 1778188022 | 13.33° C | 28% | 1010.3 hPa | 0 mm | - | 518 W/m² | - |
| 1778187718 | 13.89° C | 27% | 1010.2 hPa | 0 mm | - | 515 W/m² | - |
| 1778187415 | 13.89° C | 27% | 1010.5 hPa | 0 mm | - | 511 W/m² | - |
| 1778187111 | 13.89° C | 28% | 1010.7 hPa | 0 mm | - | 518 W/m² | - |
| 1778186808 | 13.89° C | 28% | 1010.2 hPa | 0 mm | - | 541 W/m² | - |
| 1778186506 | 13.89° C | 26% | 1010.4 hPa | 0 mm | - | 527 W/m² | - |
| 1778186203 | 13.89° C | 28% | 1010.6 hPa | 0 mm | - | 540 W/m² | - |
| 1778185901 | 13.89° C | 29% | 1010.4 hPa | 0 mm | - | 562 W/m² | - |
| 1778185596 | 13.33° C | 28% | 1010.6 hPa | 0 mm | - | 625 W/m² | - |
| 1778185293 | 12.78° C | 29% | 1010.7 hPa | 0 mm | - | 586 W/m² | - |
| 1778184987 | 12.78° C | 28% | 1010.9 hPa | 0 mm | - | 527 W/m² | - |
| 1778184685 | 13.33° C | 28% | 1010.8 hPa | 0 mm | - | 544 W/m² | - |
| 1778184381 | 13.33° C | 28% | 1010.8 hPa | 0 mm | - | 586 W/m² | - |
* Rain latest hour (hover to see other rain measurements)
** Current wind speed in m/s (hover to see current wind gust speed)